Flag for Germany Weather past 2 weeks in Rodgau, Hesse, Germany

Now
53 °F

Overcast.


Feels Like: 53 °F
Forecast: 44 / 58 °F
Wind: 1 mph from South

Location: Frankfurt / M-Flughafen

Current Time: Oct 26, 2014 at 4:24:48 AM

Latest Report: Oct 26, 2014 at 3:00 AM


Visibility: 6 mi

Pressure: 30.26 "Hg

Humidity: 99%

Dew point: 52 °F

Location of RodgauLocation

Historic Weather in Rodgau — Graph

°F

Rodgau temperature yesterday

Maximum temperature yesterday: 55 °F (at 5:00 PM)
Minimum temperature yesterday: 47 °F (at 9:00 AM)
Average temperature yesterday: 51 °F

Past Weeks' High & Low Weather Summary

 TemperatureHumidityPressure
High71 °F (Oct 19, 4:00 PM)100% (Oct 11, 4:00 AM)30.28 "Hg (Oct 11, 4:00 AM)
Low38 °F (Oct 24, 4:00 AM)61% (Oct 20, 4:00 PM)29.58 "Hg (Oct 21, 6:00 PM)
Average55 °F90%29.99 "Hg
* Reported Oct 11 4:00 AM — Oct 26 3:00 AM, Rodgau, Weather by CustomWeather, © 2014

Note: Actual official high and low records may vary slightly from our data, if they occured in-between our weather recording intervals... More about our weather records

Advertising

Rodgau weather history for previous 24 hours

 ConditionsComfort  
Time TempWeatherWind HumidityBarometerVisibility
3:00 AM
Oct 26
53 °FOvercast.1 mph99%30.26 "Hg6 mi
2:00 AM53 °FOvercast.No wind97%30.26 "Hg7 mi
2:00 AM53 °FOvercast.No wind99%30.26 "Hg7 mi
1:00 AM53 °FOvercast.No wind97%30.25 "Hg7 mi
12:00 AM53 °FOvercast.1 mph96%30.24 "Hg7 mi
10:00 PM
Oct 25
53 °FOvercast.1 mph95%30.22 "Hg8 mi
9:00 PM53 °FOvercast.2 mph93%30.20 "Hg8 mi
8:00 PM53 °FOvercast.2 mph90%30.19 "Hg9 mi
7:00 PM54 °FOvercast.1 mph96%30.18 "Hg9 mi
6:00 PM54 °FOvercast.2 mph90%30.18 "Hg9 mi
5:00 PM55 °FOvercast.1 mph84%30.16 "Hg9 mi
4:00 PM54 °FOvercast.2 mph85%30.16 "Hg7 mi
3:00 PM54 °FDrizzle. Overcast.3 mph87%30.15 "Hg7 mi
2:00 PM54 °FLow clouds.2 mph87%30.15 "Hg9 mi
1:00 PM53 °FLow clouds.2 mph86%30.15 "Hg7 mi
12:00 PM51 °FLow clouds.3 mph92%30.15 "Hg7 mi
11:00 AM49 °FLow clouds.2 mph95%30.15 "Hg7 mi
10:00 AM48 °FLow clouds.No wind95%30.14 "Hg8 mi
9:00 AM47 °FOvercast.2 mph99%30.13 "Hg9 mi
8:00 AM47 °FLight rain. Overcast.3 mph100%30.11 "Hg7 mi
7:00 AM48 °FLight rain. Overcast.1 mph98%30.10 "Hg10 mi
6:00 AM48 °FOvercast.1 mph97%30.11 "Hg11 mi
4:00 AM48 °FOvercast.No wind96%30.11 "Hg9 mi
Weather by CustomWeather, © 2014

See weather overviewHow to use our weather pages